Creek Data

    Home     View Charts     View Raw Data     Messages

ID Distance Battery Voltage Battery Current Internal Temp Internal Humidity External Temp Solar Input rssi snr Time Stamp Record
64817 14.9 3.80 -5 39 50 40 0.1 -83 8 01/30/2026 12:15 AM 47579
64816 14.9 3.67 -5 39 50 40 0 -83 8 01/30/2026 12:00 AM 47578
64815 14.9 3.80 -5 39 50 40 0.1 -82 8 01/29/2026 11:45 PM 47577
64814 14.9 3.66 -5 39 50 41 0 -87 8 01/29/2026 11:30 PM 47576
64813 14.9 3.80 -5 40 50 41 0 -89 8 01/29/2026 11:15 PM 47575
64812 14.9 3.66 -5 40 50 42 0.1 -88 7 01/29/2026 11:00 PM 47574
64811 14.9 3.67 -5 40 50 41 0 -85 8 01/29/2026 10:45 PM 47573
64810 14.9 3.67 -5 41 50 42 0 -77 9 01/29/2026 10:30 PM 47572
64809 14.9 3.67 -5 42 50 44 0 -77 9 01/29/2026 10:15 PM 47571
64808 14.9 3.68 -5 42 50 45 0 -76 8 01/29/2026 10:00 PM 47570
64807 14.9 3.68 -5 41 51 44 0 -77 8 01/29/2026 09:45 PM 47569
64806 14.9 3.69 -5 41 51 42 0 -76 8 01/29/2026 09:30 PM 47568
64805 14.9 3.69 -5 41 51 43 0 -76 8 01/29/2026 09:15 PM 47567
64804 14.9 3.69 -5 42 51 43 0 -76 8 01/29/2026 09:00 PM 47566
64803 14.9 3.81 -5 43 51 44 0 -75 9 01/29/2026 08:45 PM 47565
64802 14.9 3.69 -5 42 51 45 0 -76 9 01/29/2026 08:30 PM 47564
64801 14.9 3.81 -5 43 51 45 0 -76 8 01/29/2026 08:15 PM 47563
64800 14.9 3.70 -5 43 52 43 0 -76 8 01/29/2026 08:00 PM 47562
64799 14.9 3.81 -5 44 52 45 0.1 -76 8 01/29/2026 07:45 PM 47561
64798 14.9 3.69 -5 45 52 45 0 -76 8 01/29/2026 07:30 PM 47560
64797 14.9 3.69 -5 46 52 48 0 -76 8 01/29/2026 07:15 PM 47559
64796 14.9 3.68 -34 46 52 47 0.1 -77 9 01/29/2026 07:00 PM 47558
64795 14.9 3.69 -5 47 53 48 0 -76 8 01/29/2026 06:45 PM 47557
64794 14.9 3.69 -5 48 53 49 0 -76 8 01/29/2026 06:30 PM 47556
64793 14.9 3.68 -5 48 54 49 0.1 -77 8 01/29/2026 06:15 PM 47555